FW9915 Weather Reports


time (UTC)temp
F
wind
direction
speed
knots
gust
knots
rain 1hr
in
rain 24hr
in
rain mn
in
humidity
%
barometer
mb
20260903211519 65 0.0 0.0 0.00 0.00 0.00 99 1016.2
20260903210520 65 113 0.0 0.9 0.00 0.00 0.00 99 1016.3
20260903205519 66 113 0.0 0.9 0.00 0.00 0.00 99 1016.3
20260903204519 66 0.0 0.0 0.00 0.00 0.00 99 1016.3
20260903203519 66 113 0.0 1.7 0.00 0.00 0.00 99 1016.3
20260903202539 66 113 0.9 1.7 0.00 0.00 0.00 99 1016.3
20260903201539 66 135 0.0 1.7 0.00 0.00 0.00 99 1016.3
20260903200519 66 0.0 0.0 0.00 0.00 0.00 98 1016.4
20260903195519 66 0.0 0.0 0.00 0.00 0.00 98 1016.4
20260903194539 66 0.0 0.0 0.00 0.00 0.00 98 1016.4
20260903193539 67 135 0.0 1.7 0.00 0.00 0.00 98 1016.4
20260903192531 67 0.0 0.0 0.00 0.00 0.00 98 1016.5
20260903191520 67 0.0 0.0 0.00 0.00 0.00 97 1016.5
20260903190519 67 0.0 0.0 0.00 0.00 0.00 97 1016.4
20260903185520 67 0.0 0.0 0.00 0.00 0.00 97 1016.4
20260903184519 68 0.0 0.0 0.00 0.00 0.00 96 1016.3
20260903183540 69 0.0 0.0 0.00 0.00 0.00 96 1016.3
20260903182520 69 0.0 0.0 0.00 0.00 0.00 96 1016.2
20260903181520 69 0.0 0.0 0.00 0.00 0.00 95 1016.2
20260903180519 69 0.0 0.0 0.00 0.00 0.00 95 1016.3
20260903175519 70 0.0 0.0 0.00 0.00 0.00 95 1016.2
20260903174519 70 135 0.0 1.7 0.00 0.00 0.00 95 1016.2
20260903173531 71 0.0 0.0 0.00 0.00 0.00 95 1016.2
20260903172520 71 0.0 0.0 0.00 0.00 0.00 94 1016.1
20260903171519 71 0.0 0.0 0.00 0.00 0.00 93 1016.0
20260903170531 72 135 0.9 1.7 0.00 0.00 0.00 92 1016.0
20260903165620 72 135 0.9 1.7 0.00 0.00 0.00 91 1016.0
20260903164520 72 131 1.7 3.5 0.00 0.00 0.00 90 1016.0
20260903163519 72 135 1.7 3.5 0.00 0.00 0.00 89 1015.9
20260903162532 72 135 1.7 3.5 0.00 0.00 0.00 88 1016.0
20260903161520 72 113 1.7 3.5 0.00 0.00 0.00 86 1015.9
20260903160540 73 113 0.9 3.5 0.00 0.00 0.00 85 1015.8
20260903155519 73 113 1.7 1.7 0.00 0.00 0.00 84 1015.8
20260903154652 73 113 0.0 1.7 0.00 0.00 0.00 82 1015.8
20260903153519 74 115 1.7 3.5 0.00 0.00 0.00 82 1015.8
20260903152531 75 203 0.9 1.7 0.00 0.00 0.00 78 1016.0
20260903151519 75 182 1.7 3.5 0.00 0.00 0.00 77 1016.0
20260903150520 75 80 0.9 3.5 0.00 0.00 0.00 76 1016.2
20260903145519 74 53 1.7 7.8 0.00 0.00 0.00 79 1016.3
20260903144520 74 90 0.9 3.5 0.00 0.00 0.00 79 1016.1
20260903143520 74 113 1.7 1.7 0.00 0.00 0.00 77 1016.2
20260903142519 74 115 1.7 3.5 0.00 0.00 0.00 75 1016.2
20260903141520 74 135 0.9 1.7 0.00 0.00 0.00 76 1016.0
20260903140559 74 159 0.9 3.5 0.00 0.00 0.00 77 1015.8
20260903135600 75 162 1.7 3.5 0.00 0.00 0.00 76 1015.9
20260903134543 75 180 2.6 3.5 0.00 0.00 0.00 75 1015.9
20260903133520 75 120 2.6 6.1 0.00 0.00 0.00 75 1015.9
20260903132520 76 128 1.7 3.5 0.00 0.00 0.00 72 1015.9
20260903131552 76 117 3.5 6.1 0.00 0.00 0.00 71 1015.8
20260903130539 77 124 2.6 6.1 0.00 0.00 0.00 71 1015.8
20260903125519 77 119 2.6 3.5 0.00 0.00 0.00 72 1016.0
20260903124519 77 143 2.6 3.5 0.00 0.00 0.00 71 1016.1
20260903123519 77 150 2.6 6.1 0.00 0.00 0.00 73 1016.1
20260903122520 75 136 3.5 7.8 0.00 0.00 0.00 75 1016.1
20260903121519 76 172 2.6 6.1 0.00 0.00 0.00 73 1016.1
20260903120520 77 182 4.3 7.8 0.00 0.00 0.00 69 1016.2
20260903115540 77 137 2.6 6.1 0.00 0.00 0.00 70 1016.3
20260903114520 76 141 4.3 7.8 0.00 0.00 0.00 69 1016.4
20260903113519 77 159 3.5 7.8 0.00 0.00 0.00 66 1016.4
20260903112519 77 137 3.5 6.1 0.00 0.00 0.00 66 1016.5
20260903111520 76 140 3.5 6.1 0.00 0.00 0.00 64 1016.5
20260903110519 76 133 4.3 6.1 0.00 0.00 0.00 62 1016.6
20260903105519 77 127 2.6 6.1 0.00 0.00 0.00 61 1016.7
20260903104600 78 125 3.5 6.1 0.00 0.00 0.00 60 1016.7
20260903103532 78 173 3.5 6.1 0.00 0.00 0.00 59 1016.8
20260903102519 78 161 2.6 6.1 0.00 0.00 0.00 60 1017.0
20260903101520 78 168 2.6 6.1 0.00 0.00 0.00 60 1017.0
20260903100519 78 183 3.5 6.1 0.00 0.00 0.00 60 1017.1
20260903095520 77 138 3.5 6.1 0.00 0.00 0.00 62 1017.1
20260903094520 78 186 3.5 6.1 0.00 0.00 0.00 59 1017.1
20260903093532 79 183 2.6 3.5 0.00 0.00 0.00 56 1017.1
20260903092540 79 182 3.5 6.1 0.00 0.00 0.00 56 1017.2
20260903091520 78 158 2.6 3.5 0.00 0.00 0.00 60 1017.3
20260903090532 78 153 1.7 3.5 0.00 0.00 0.00 60 1017.3
20260903085544 78 174 2.6 6.1 0.00 0.00 0.00 58 1017.4
20260903084520 78 158 0.9 1.7 0.00 0.00 0.00 58 1017.5
20260903083531 78 152 1.7 3.5 0.00 0.00 0.00 57 1017.5
20260903082519 77 193 1.7 6.1 0.00 0.00 0.00 58 1017.6
20260903081544 78 173 2.6 6.1 0.00 0.00 0.00 61 1017.5
20260903080543 77 169 3.5 6.1 0.00 0.00 0.00 62 1017.5
20260903075520 78 170 1.7 3.5 0.00 0.00 0.00 63 1017.4
20260903074520 77 180 1.7 1.7 0.00 0.00 0.00 63 1017.4
20260903073556 77 180 2.6 3.5 0.00 0.00 0.00 62 1017.5
20260903072552 78 180 0.9 3.5 0.00 0.00 0.00 60 1017.5
20260903071531 78 180 1.7 3.5 0.00 0.00 0.00 60 1017.5
20260903070520 76 180 1.7 3.5 0.00 0.00 0.00 62 1017.5
20260903065519 76 180 1.7 3.5 0.00 0.00 0.00 62 1017.4
20260903064540 78 180 1.7 3.5 0.00 0.00 0.00 60 1017.4
20260903063520 79 114 1.7 3.5 0.00 0.00 0.00 53 1017.3
20260903062520 79 23 1.7 3.5 0.00 0.00 0.00 51 1017.4
20260903061520 80 0.0 0.0 0.00 0.00 0.00 49 1017.3
20260903060543 83 0.0 0.0 0.00 0.00 0.00 50 1017.3
20260903055520 80 0.0 0.0 0.00 0.00 0.00 55 1017.4
20260903054532 78 0.0 0.0 0.00 0.00 0.00 61 1017.3
20260903053519 76 23 0.9 1.7 0.00 0.00 0.00 66 1017.2
20260903052520 75 23 0.9 3.5 0.00 0.00 0.00 67 1017.2
20260903051520 74 23 1.7 3.5 0.00 0.00 0.00 71 1017.3
20260903050540 73 23 0.0 1.7 0.00 0.00 0.00 73 1017.3
20260903045520 70 0.0 0.0 0.00 0.00 0.00 85 1017.4
20260903044520 67 0.0 0.0 0.00 0.00 0.00 93 1017.3
20260903043520 64 23 0.9 1.7 0.00 0.00 0.00 98 1017.3
20260903042520 64 23 1.7 3.5 0.00 0.00 0.00 99 1017.3
20260903041520 63 0.0 0.0 0.00 0.00 0.00 99 1017.3
20260903040540 62 0.0 0.0 0.00 0.00 0.00 99 1017.3
20260903035519 62 0.0 0.0 0.00 0.00 0.00 99 1017.2
20260903034520 62 0.0 0.0 0.00 0.00 0.00 99 1017.0
20260903033519 62 0.0 0.0 0.00 0.00 0.00 99 1017.1
20260903032552 62 0.0 0.0 0.00 0.00 0.00 99 1017.0
20260903031520 62 0.0 0.0 0.00 0.00 0.00 99 1017.0
20260903025552 62 0.0 0.0 0.00 0.00 0.00 99 1017.1
20260903024520 61 0.0 0.0 0.00 0.00 0.00 99 1017.0
20260903023520 62 0.0 0.0 0.00 0.00 0.00 99 1016.9
20260903022540 62 0.0 0.0 0.00 0.00 0.00 99 1017.0
20260903021520 62 0.0 0.0 0.00 0.00 0.00 99 1017.1
20260903020532 62 0.0 0.0 0.00 0.00 0.00 99 1017.2
20260903015519 62 0.0 0.0 0.00 0.00 0.00 99 1017.1
20260903014532 62 0.0 0.0 0.00 0.00 0.00 99 1017.1
20260903013519 62 23 0.0 1.7 0.00 0.00 0.00 99 1017.1
20260903012544 63 0.0 0.0 0.00 0.00 0.00 99 1017.0
20260903011520 63 0.0 0.0 0.00 0.00 0.00 99 1017.1
20260903010520 63 0.0 0.0 0.00 0.00 0.00 99 1017.1
20260903005520 63 0.0 0.0 0.00 0.00 0.00 99 1017.1
20260903004520 63 0.0 0.0 0.00 0.00 0.00 99 1017.1
20260903003520 64 0.0 0.0 0.00 0.00 0.00 99 1017.1
20260903002520 64 0.0 0.0 0.00 0.00 0.00 99 1017.0
20260903001520 64 0.0 0.0 0.00 0.00 0.00 99 1017.0
20260903000520 65 0.0 0.0 0.00 0.00 0.00 99 1017.1
20260902235520 64 0.0 0.0 0.00 0.00 0.00 99 1017.0
20260902234540 64 0.0 0.0 0.00 0.00 0.00 99 1017.0
20260902233520 64 0.0 0.0 0.00 0.00 0.00 99 1017.2
20260902232520 65 0.0 0.0 0.00 0.00 0.00 99 1017.3
20260902231540 65 0.0 0.0 0.00 0.00 0.00 99 1017.4
20260902230520 65 0.0 0.0 0.00 0.00 0.00 99 1017.6
20260902225520 65 0.0 0.0 0.00 0.00 0.00 99 1017.6
20260902224520 66 0.0 0.0 0.00 0.00 0.00 99 1017.6
20260902223520 66 0.0 0.0 0.00 0.00 0.00 98 1017.6
20260902222520 66 0.0 0.0 0.00 0.00 0.00 98 1017.7
20260902221532 67 0.0 0.0 0.00 0.00 0.00 98 1017.8
20260902220532 67 0.0 0.0 0.00 0.00 0.00 98 1017.8
20260902215540 68 0.0 0.0 0.00 0.00 0.00 98 1017.9
20260902214532 68 158 0.0 1.7 0.00 0.00 0.00 98 1017.8
20260902213556 68 158 0.9 1.7 0.00 0.00 0.00 98 1017.7
20260902212520 68 158 0.0 1.7 0.00 0.00 0.00 97 1017.7